Location: Unspecified
(35.6961°N, 0.0000°E)
Time: 10:52:35
(UTC+00:00)

Vanguard 3 - Pass Details

Date: 27 May 2019
Orbit: 508 x 3263 km, 33.3° (Epoch: 17 June)

Event Time Altitude Azimuth Distance (km) Brightness Sun altitude
Rises 19:57:23 0° 247° (WSW) 2,926 10.5 -9.6°
Reaches altitude 10° 19:59:19 10° 243° (WSW) 2,183 9.7 -9.9°
Maximum altitude 20:04:13 60° 163° (SSE) 1,093 7.5 -10.7°
Drops below altitude 10° 20:12:40 10° 86° (E) 3,677 10.1 -12.1°
Sets 20:16:50 0° 84° (E) 5,141 10.8 -12.7°
